N3SW-13 Weather Reports


Display with metric or nautical units.
time (UTC)temp
F
wind
direction
speed
MPH
gust
MPH
rain 1hr
in
rain 24hr
in
rain mn
in
humidity
%
barometer
mb
20260505053035 62 323 0.0 0.0 0.00 0.00 0.00 48 1012.2
20260505051532 63 323 0.0 0.0 0.00 0.00 0.00 49 1012.3
20260505041537 64 323 0.0 0.0 0.00 0.00 0.00 48 1012.2
20260505040033 65 323 0.0 0.0 0.00 0.00 0.00 47 1012.2
20260505034524 65 323 0.0 5.0 0.00 0.00 0.00 49 1012.3
20260505033022 65 323 0.0 5.0 0.00 0.00 0.00 48 1012.3
20260505031533 66 325 0.0 7.0 0.00 0.00 0.00 48 1012.3
20260505030021 66 311 0.0 11.0 0.00 0.00 0.00 49 1012.2
20260505024520 65 319 0.0 4.0 0.00 0.00 0.00 50 1012.3
20260505023019 66 321 0.0 4.0 0.00 0.00 0.00 51 1012.4
20260505021517 66 321 0.0 6.0 0.00 0.00 0.00 52 1012.3
20260505020018 65 322 0.0 4.0 0.00 0.00 0.00 53 1012.3
20260505014517 65 322 0.0 4.0 0.00 0.00 0.00 54 1012.4
20260505013017 65 322 0.0 0.0 0.00 0.00 0.00 54 1012.3
20260505011517 66 322 0.0 1.0 0.00 0.00 0.00 54 1012.2
20260505010022 66 322 0.0 0.0 0.00 0.00 0.00 54 1012.0
20260505004516 67 322 0.0 1.0 0.00 0.00 0.00 54 1011.7
20260505003015 67 322 0.0 2.0 0.00 0.00 0.00 54 1011.4
20260505001515 68 322 0.0 3.0 0.00 0.00 0.00 54 1011.5
20260505000014 69 322 0.0 0.0 0.00 0.00 0.00 51 1011.4
20260504234514 71 322 0.0 0.0 0.00 0.00 0.00 48 1011.4
20260504233013 73 322 0.0 9.0 0.00 0.00 0.00 43 1011.3
20260504231512 73 286 0.0 5.0 0.00 0.00 0.00 42 1011.2
20260504230012 74 262 0.0 8.0 0.00 0.00 0.00 41 1011.2
20260504224514 74 228 0.0 8.0 0.00 0.00 0.00 39 1011.4
20260504223015 75 284 1.0 4.0 0.00 0.00 0.00 40 1011.3
20260504221507 76 289 0.0 3.0 0.00 0.00 0.00 39 1011.4
20260504220013 76 224 1.0 5.0 0.00 0.00 0.00 38 1011.6
20260504214505 76 305 1.0 6.0 0.00 0.00 0.00 38 1011.7
20260504213003 75 292 1.0 5.0 0.00 0.00 0.00 42 1011.8
20260504211600 74 277 1.0 7.0 0.00 0.00 0.00 44 1011.6
20260504210058 73 298 0.0 6.0 0.00 0.00 0.00 44 1011.7
20260504204555 72 219 0.0 2.0 0.00 0.00 0.00 49 1011.7
20260504203106 72 214 0.0 0.0 0.00 0.00 0.00 49 1011.5
20260504201554 72 214 0.0 2.0 0.00 0.00 0.00 49 1012.0
20260504200048 72 214 0.0 4.0 0.00 0.00 0.00 47 1012.2
20260504194545 71 286 0.0 1.0 0.00 0.00 0.00 49 1012.3
20260504193043 71 286 0.0 3.0 0.00 0.00 0.00 47 1012.4
20260504191539 70 286 0.0 3.0 0.00 0.00 0.00 48 1012.6
20260504190044 69 286 0.0 2.0 0.00 0.00 0.00 50 1012.7
20260504184536 68 286 0.0 3.0 0.00 0.00 0.00 51 1012.8
20260504183034 68 286 0.0 1.0 0.00 0.00 0.00 48 1013.3
20260504181541 69 286 0.0 3.0 0.00 0.00 0.00 49 1013.7
20260504180031 69 287 0.0 2.0 0.00 0.00 0.00 46 1013.8
20260504174531 70 287 0.0 6.0 0.00 0.00 0.00 44 1013.9
20260504173029 70 281 0.0 5.0 0.00 0.00 0.00 44 1013.9
20260504171526 69 228 1.0 6.0 0.00 0.00 0.00 46 1013.9
20260504150113 63 232 1.0 4.0 0.00 0.00 0.00 49 1015.6
20260504081512 52 286 0.0 0.0 0.00 0.00 0.00 51 1015.9